Richmond, VA

9:58 AM EST on February 06, 2016 (GMT -0500)
Richmond International

Weather History for KRIC - February, 2013

Change the Weather History Date:

Wednesday, February 20, 2013

  Actual Average Record
Temperature  
Mean Temperature 39 °F 42 °F  
Max Temperature 48 °F 53 °F 77 °F (1930)
Min Temperature 30 °F 31 °F 3 °F (1979)
Degree Days  
Heating Degree Days 26 23  
Month to date heating degree days 500 498  
Since 1 July heating degree days 2538 2759  
Cooling Degree Days 0 0  
Month to date cooling degree days 0 0  
Year to date cooling degree days 1 0  
Moisture  
Dew Point 17 °F    
Average Humidity 51    
Maximum Humidity 79    
Minimum Humidity 23    
Precipitation  
Precipitation 0.00 in 0.10 in 1.32 in (1921)
Month to date precipitation 1.61 1.94  
Year to date precipitation 6.94 4.98  
Snow  
Snow 0.00 in 0.10 in 5.60 in (1947)
Month to date snowfall T 2.6  
Since 1 July snowfall 3.2 8.8  
Snow Depth 0.00 in    
Sea Level Pressure  
Sea Level Pressure 30.03 in    
Wind  
Wind Speed 9 mph (WNW)    
Max Wind Speed 21 mph    
Max Gust Speed 26 mph    
Visibility 10 miles    
Events      
T = Trace of Precipitation, MM = Missing Value Source: NWS Daily Summary

Daily Weather History Graph

Daily Weather History Graph

Search for Another Location

Airport or City:

Trip Planner

Search our weather history database for the weather conditions in past years. The results will help you decide how hot, cold, wet, or windy it might be!

Date:

Astronomy

Feb. 20, 2013 Rise Set
Actual Time 6:52 AM EST 5:54 PM EST
Civil Twilight 6:25 AM EST 6:20 PM EST
Nautical Twilight 5:55 AM EST 6:51 PM EST
Astronomical Twilight 5:24 AM EST 7:21 PM EST
Moon 1:17 PM EST (2/20) 3:07 AM EST (2/20)
Length of Visible Light 11h 55m
Length of Day
11h 02m
Waxing Gibbous, 76% of the Moon is Illuminated
Feb 20
Waxing Gibbous
Feb 25
Full
Mar 4
Last Quarter
Mar 11
New
Mar 19
First Quarter

Hourly Weather History & Observations

Time (EST) Temp. Windchill Dew Point Humidity Pressure Visibility Wind Dir Wind Speed Gust Speed Precip Events Conditions
12:54 AM 39.2 °F 34.2 °F 32.0 °F 75% 29.89 in 10.0 mi West 6.9 mph - N/A   Clear
1:54 AM 37.0 °F 33.3 °F 30.0 °F 76% 29.93 in 10.0 mi WSW 4.6 mph - N/A   Clear
2:54 AM 37.9 °F 32.7 °F 19.9 °F 48% 29.93 in 10.0 mi West 6.9 mph - N/A   Clear
3:54 AM 35.1 °F 29.3 °F 19.0 °F 52% 29.93 in 10.0 mi WSW 6.9 mph - N/A   Clear
4:54 AM 35.1 °F 29.3 °F 18.0 °F 50% 29.96 in 10.0 mi West 6.9 mph - N/A   Clear
5:54 AM 35.1 °F 29.3 °F 16.0 °F 46% 29.99 in 10.0 mi West 6.9 mph - N/A   Clear
6:54 AM 33.8 °F 27.0 °F 17.6 °F 52% 29.99 in 10.0 mi West 8.1 mph - N/A   Partly Cloudy
7:54 AM 37.0 °F - 16.0 °F 42% 30.04 in 10.0 mi Calm Calm - N/A   Partly Cloudy
8:54 AM 37.9 °F 29.6 °F 15.1 °F 39% 30.04 in 10.0 mi West 13.8 mph 20.7 mph N/A   Clear
9:54 AM 39.9 °F 31.8 °F 15.1 °F 36% 30.04 in 10.0 mi West 15.0 mph 21.9 mph N/A   Partly Cloudy
10:54 AM 41.0 °F 34.3 °F 14.0 °F 33% 30.05 in 10.0 mi West 11.5 mph - N/A   Partly Cloudy
11:54 AM 44.1 °F 37.7 °F 16.0 °F 32% 30.04 in 10.0 mi WNW 12.7 mph 17.3 mph N/A   Partly Cloudy
12:54 PM 45.0 °F 38.2 °F 15.1 °F 30% 30.02 in 10.0 mi West 15.0 mph 20.7 mph N/A   Partly Cloudy
1:54 PM 46.0 °F 39.9 °F 14.0 °F 28% 30.01 in 10.0 mi West 13.8 mph 21.9 mph N/A   Partly Cloudy
2:54 PM 46.0 °F 40.6 °F 12.0 °F 25% 30.00 in 10.0 mi West 11.5 mph 18.4 mph N/A   Scattered Clouds
3:54 PM 46.9 °F - 12.0 °F 24% 30.01 in 10.0 mi West 13.8 mph 24.2 mph N/A   Scattered Clouds
4:54 PM 46.0 °F 40.6 °F 10.9 °F 24% 30.01 in 10.0 mi WNW 11.5 mph - N/A   Scattered Clouds
5:54 PM 43.0 °F 39.5 °F 12.0 °F 28% 30.04 in 10.0 mi NW 5.8 mph - N/A   Partly Cloudy
6:54 PM 42.1 °F 37.7 °F 12.9 °F 31% 30.07 in 10.0 mi WNW 6.9 mph - N/A   Partly Cloudy
7:54 PM 39.9 °F 33.4 °F 14.0 °F 35% 30.09 in 10.0 mi NW 10.4 mph - N/A   Clear
8:15 PM 37.4 °F 29.3 °F 15.8 °F 41% 30.09 in 10.0 mi NNE 12.7 mph - N/A   Clear
8:54 PM 35.1 °F 26.9 °F 16.0 °F 46% 30.14 in 10.0 mi North 11.5 mph - N/A   Clear
9:54 PM 33.1 °F 24.4 °F 14.0 °F 46% 30.17 in 10.0 mi NNE 11.5 mph - N/A   Mostly Cloudy
10:54 PM 30.9 °F 22.8 °F 14.0 °F 50% 30.17 in 10.0 mi North 9.2 mph - N/A   Mostly Cloudy
11:54 PM 30.0 °F 25.2 °F 15.1 °F 54% 30.16 in 10.0 mi NNE 4.6 mph - N/A   Overcast